Location: Bakhuizen
(52.8696°N, 5.4575°E)
Time: 04:35:22
(UTC+00:00)

Cosmos 923 Rocket - Pass Details

Date: 11 May 2021
Orbit: 758 x 785 km, 74.0° (Epoch: 14 June)

Event Time Altitude Azimuth Distance (km) Brightness Sun altitude
Rises 20:58:33 0° 335° (NNW) 3,244 9.1 -11.4°
Reaches altitude 10° 21:00:57 10° 337° (NNW) 2,318 7.9 -11.6°
Maximum altitude 21:06:12 69° 62° (ENE) 828 4.1 -12.1°
Enters shadow 21:10:12 18° 143° (SE) 1,848 5.3 -12.5°
